Hourly Data Report for May 01, 2003

SHERBROOKE A
QUEBEC

45°26'00.000" N
71°41'00.000" W
241.40 m
7028124
71610
YSC

Download Data

Hourly Data (May 2003)
Hourly Data Report for May 1, 2003
TIME
LST
Temp Definition
°C
Dew Point Definition
°C
Rel Hum Definition
%
Precip. Amount Definition
mm

Wind Dir Definition
10's deg

Wind Spd Definition
km/h
Visibility Definition
km
Stn Press Definition
kPa
Hmdx Definition


Wind Chill Definition


Weather Definition


00:00 2.2 -3.6 65   10 7 15.0 99.04      
01:00 2.1 -3.7 65   7 6 15.0 99.01      
02:00 2.4 -3.3 66   7 7 15.0 98.99      
03:00 2.5 -1.6 74   4 9 15.0 98.92     Rain
04:00 2.0 0.1 87     0 15.0 98.88     Rain
05:00 3.6 2.7 94   8 11 9.7 98.77     Rain
06:00 4.3 3.4 94   1 4 12.9 98.72     Rain
07:00 5.2 4.6 96   1 4 6.4 98.70     Rain,Fog
08:00 6.5 5.9 96   7 4 9.7 98.66     Rain,Fog
09:00 7.5 6.5 93   12 9 19.3 98.54     Rain
10:00 8.1 7.1 93   9 6 24.1 98.44     Cloudy
11:00 10.0 6.8 80   14 13 24.1 98.32     Cloudy
12:00 13.0 8.0 72   18 13 24.1 98.16     Cloudy
13:00 11.4 9.1 86   16 11 19.3 98.00     Rain Showers
14:00 13.5 9.3 76   18 13 24.1 97.89     Mostly Cloudy
15:00 15.4 9.7 69   18 19 24.1 97.73     Mostly Cloudy
16:00 14.2 10.9 81   23 6 19.3 97.80     Rain Showers
17:00 12.9 11.6 92   24 7 5.6 97.93     Rain
18:00 12.4 11.8 96   21 6 4.0 97.91     Rain
19:00 12.1 11.6 97   20 4 1.6 97.92      
20:00 11.7 11.3 97   29 9 0.8 98.00      
21:00 10.7 10.0 95   29 19 6.4 98.12      
22:00 9.0 8.5 97   26 15 0.8 98.19      
23:00 8.4 8.0 97   27 4 1.3 98.31     Drizzle

Notes on Data Quality.

Legend

  • E = Estimated
  • M = Missing
  • NA = Not Available*
  • [empty] = Indicates an unobserved value
Date modified: